This is the latest recevied weather packets stored in our database for station/object KO4LCK. If no packets are shown the sender has not sent any weather packets the latest 10 day(s).
| Time | Temp. | Humidity | Pressure | Rain* | Wind** | Luminosity | Snow |
|---|---|---|---|---|---|---|---|
| 1777859339 | 11.67° C | 73% | 1018.7 hPa | 0 mm | - | 0 W/m² | - |
| 1777859035 | 11.67° C | 72% | 1018.6 hPa | 0 mm | - | 0 W/m² | - |
| 1777858733 | 12.22° C | 72% | 1018.6 hPa | 0 mm | - | 0 W/m² | - |
| 1777858431 | 12.22° C | 71% | 1018.5 hPa | 0 mm | - | 0 W/m² | - |
| 1777858127 | 12.78° C | 71% | 1018.4 hPa | 0 mm | - | 0 W/m² | - |
| 1777857825 | 12.78° C | 71% | 1018.4 hPa | 0 mm | - | 0 W/m² | - |
| 1777857522 | 12.78° C | 68% | 1018.4 hPa | 0 mm | - | 0 W/m² | - |
| 1777857218 | 13.33° C | 68% | 1018.3 hPa | 0 mm | - | 0 W/m² | - |
| 1777856915 | 13.33° C | 69% | 1018.4 hPa | 0 mm | - | 0 W/m² | - |
| 1777856610 | 13.89° C | 68% | 1018.4 hPa | 0 mm | - | 0 W/m² | - |
| 1777856307 | 13.89° C | 65% | 1018.4 hPa | 0 mm | - | 0 W/m² | - |
| 1777856004 | 14.44° C | 62% | 1018.3 hPa | 0 mm | - | 0 W/m² | - |
| 1777855702 | 14.44° C | 60% | 1018.4 hPa | 0 mm | - | 0 W/m² | - |
| 1777855399 | 15° C | 61% | 1018.1 hPa | 0 mm | - | 0 W/m² | - |
| 1777855095 | 15° C | 57% | 1018.2 hPa | 0 mm | - | 0 W/m² | - |
| 1777854793 | 15.56° C | 59% | 1018.1 hPa | 0 mm | - | 1 W/m² | - |
| 1777854489 | 15.56° C | 66% | 1018.1 hPa | 0 mm | - | 2 W/m² | - |
| 1777854186 | 16.11° C | 59% | 1018.1 hPa | 0 mm | - | 4 W/m² | - |
| 1777853884 | 16.11° C | 59% | 1018 hPa | 0 mm | - | 6 W/m² | - |
| 1777853580 | 16.67° C | 51% | 1017.9 hPa | 0 mm | - | 8 W/m² | - |
| 1777853277 | 16.67° C | 55% | 1018.1 hPa | 0 mm | - | 10 W/m² | - |
| 1777852974 | 17.22° C | 50% | 1018 hPa | 0 mm | - | 13 W/m² | - |
| 1777852672 | 17.22° C | 50% | 1017.8 hPa | 0 mm | - | 16 W/m² | - |
| 1777852369 | 17.78° C | 52% | 1017.9 hPa | 0 mm | - | 18 W/m² | - |
| 1777852067 | 17.78° C | 48% | 1017.9 hPa | 0 mm | - | 20 W/m² | - |
* Rain latest hour (hover to see other rain measurements)
** Current wind speed in m/s (hover to see current wind gust speed)